Location: *
(45.5667°S, 177.5167°W)
Time: 05:40:31
(UTC+00:00)

CZ-4C R/B - Pass Details

Date: 29 May 2022
Orbit: 395 x 467 km, 97.7° (Epoch: 24 June)

Event Time Altitude Azimuth Distance (km) Brightness Sun altitude
Rises 05:40:57 0° 33° (NNE) 2,357 6.4 -14.2°
Reaches altitude 10° 05:42:59 10° 42° (NE) 1,514 5.3 -14.5°
Maximum altitude 05:45:59 36° 109° (ESE) 715 3.4 -15.0°
Drops below altitude 10° 05:49:06 10° 177° (S) 1,576 5.5 -15.5°
Sets 05:51:16 0° 185° (S) 2,469 6.6 -15.9°
